This demonstration page uses our WeatherBlox Daily Observations layout. Learn more.

Left ArrowRight Arrow

39.51506, -84.39828

Hourly Observations for July 27, 2021

Temp ( °F °C ) Dew Point ( °F °C ) Humidity (%) Winds ( mph kmh ) Pressure ( in mb ) Visibility ( mi km ) Precip ( " mm )
12:15 am 00:15 Clear 67 19.3 66 19 98 98 N 3 6 30.04 1017 10 16 N/A
12:35 am 00:35 Clear 67 19.2 66 18.9 98 98 NNE 5 7 30.05 1017 10 16 N/A
12:55 am 00:55 Clear 66 18.8 65 18.6 99 99 NNE 3 6 30.05 1018 10 16 N/A
1:15 am 01:15 Clear 64 18 66 19 100 100 N N/A 30.05 1018 10 16 N/A
1:35 am 01:35 Clear 66 19 N/A N/A N N/A 30.04 1017 10 16 N/A
1:55 am 01:55 Clear 64 18 64 18 100 100 N N/A 30.04 1017 10 16 N/A
2:15 am 02:15 Clear 64 18 N/A N/A N 5 7 30.05 1018 10 16 N/A
2:35 am 02:35 Clear 64 18 N/A N/A N 3 6 30.05 1018 10 16 N/A
2:55 am 02:55 Hazy 63 17 N/A N/A N N/A 30.04 1017 5 8 N/A
3:15 am 03:15 Hazy 63 17 N/A N/A NNW 3 6 30.05 1018 7 11 N/A
3:35 am 03:35 Clear 63 17 N/A N/A N 3 6 30.04 1017 10 16 N/A
3:55 am 03:55 Clear 63 17 N/A N/A N 3 6 30.04 1017 7 11 N/A
4:15 am 04:15 Clear 63 17 N/A N/A N 3 6 30.04 1017 10 16 N/A
4:35 am 04:35 Clear 63 17 N/A N/A NNE 3 6 30.05 1018 10 16 N/A
4:55 am 04:55 Clear 63 17 N/A N/A N 3 6 30.05 1018 10 16 N/A
5:15 am 05:15 Clear 61 16 N/A N/A N 3 6 30.05 1018 7 11 N/A
5:35 am 05:35 Hazy 61 16 N/A N/A NNE 3 6 30.05 1018 7 11 N/A
5:55 am 05:55 Hazy 61 16 N/A N/A N 5 7 30.05 1018 5 8 N/A
6:15 am 06:15 Clear 61 16 N/A N/A NNE 5 7 30.05 1018 7 11 N/A
6:35 am 06:35 Hazy 61 16 N/A N/A NNE 5 7 30.06 1018 5 8 N/A
6:55 am 06:55 Hazy 63 17 N/A N/A N 5 7 30.06 1018 7 11 N/A
7:15 am 07:15 Hazy 63 17 N/A N/A NNE 3 6 30.06 1018 7 11 N/A
7:35 am 07:35 Hazy 64 18 N/A N/A N N/A 30.07 1018 5 8 N/A
7:55 am 07:55 Hazy 64 18 N/A N/A N N/A 30.07 1018 7 11 N/A
8:15 am 08:15 Sunny with Mist and Fog 67 19.5 67 19.4 99 99 N N/A 30.07 1018 7 11 N/A
8:35 am 08:35 Sunny 69 20.3 67 19.5 95 95 NNE 3 6 30.07 1018 7 11 N/A
8:55 am 08:55 Sunny 71 21.4 68 20 92 92 N N/A 30.07 1018 7 11 N/A
9:15 am 09:15 Sunny 72 22.4 68 20.2 87 87 N N/A 30.08 1019 10 16 N/A
9:35 am 09:35 Sunny 75 23.7 68 20.2 81 81 N N/A 30.08 1018 10 16 N/A
9:55 am 09:55 Sunny 76 24.5 66 18.7 70 70 N N/A 30.07 1018 10 16 N/A
10:15 am 10:15 Sunny 78 25.3 66 18.8 67 67 NNE 3 6 30.07 1018 10 16 N/A
10:35 am 10:35 Sunny 79 26.3 65 18.5 62 62 N N/A 30.06 1018 10 16 N/A
10:55 am 10:55 Sunny 81 27 65 18.4 59 59 N N/A 30.06 1018 10 16 N/A
11:15 am 11:15 Sunny 82 27.9 67 19.4 60 60 N 3 6 30.05 1017 10 16 N/A
11:35 am 11:35 Sunny 83 28.6 66 19 56 56 NNW 5 7 30.05 1018 10 16 N/A
11:55 am 11:55 Sunny 84 28.9 64 17.5 50 50 N N/A 30.06 1018 10 16 N/A
12:15 pm 12:15 Sunny 85 29.2 62 16.4 46 46 NNW 5 7 30.06 1018 10 16 N/A
12:35 pm 12:35 Sunny 85 29.6 63 17.2 47 47 N 8 13 30.06 1018 10 16 N/A
12:55 pm 12:55 Sunny 86 29.9 65 18.1 49 49 N 6 9 30.05 1018 10 16 N/A
1:15 pm 13:15 Sunny 86 30 62 16.5 44 44 NW 7 11 30.05 1018 10 16 N/A
1:35 pm 13:35 Sunny 86 29.8 64 17.6 48 48 N N/A 30.04 1017 10 16 N/A
1:55 pm 13:55 Hazy 87 30.4 63 17.1 45 45 N N/A 30.03 1017 5 8 N/A
2:15 pm 14:15 Sunny 87 30.5 60 15.3 40 40 NNW 7 11 30.03 1017 10 16 N/A
2:35 pm 14:35 Sunny 87 30.5 58 14.3 37 37 NW 3 6 30.03 1017 10 16 N/A
2:55 pm 14:55 Sunny 87 30.6 60 15.7 41 41 W 5 7 30.04 1017 10 16 N/A
3:15 pm 15:15 Sunny 87 30.4 62 16.8 44 44 NNW 3 6 30.03 1017 10 16 N/A
3:35 pm 15:35 Sunny 87 30.7 64 17.5 45 45 NNW 5 7 30.04 1017 10 16 N/A
3:55 pm 15:55 Sunny 87 30.6 63 17.4 45 45 NW 6 9 30.03 1017 10 16 N/A
4:15 pm 16:15 Sunny 87 30.5 64 17.6 46 46 NW 3 6 30.02 1017 10 16 N/A
4:35 pm 16:35 Sunny 87 30.6 62 16.7 43 43 ESE 3 6 30.00 1016 10 16 N/A
4:55 pm 16:55 Sunny 87 30.7 64 17.8 46 46 NE 5 7 30.00 1016 10 16 N/A
5:15 pm 17:15 Sunny 87 30.6 62 16.9 44 44 NW 5 7 30.00 1016 10 16 N/A
5:35 pm 17:35 Sunny 87 30.6 63 17.3 45 45 N N/A 30.00 1016 10 16 N/A
5:55 pm 17:55 Sunny 87 30.4 64 18 47 47 N 5 7 29.99 1016 10 16 N/A
6:15 pm 18:15 Sunny 87 30.4 65 18.3 48 48 NNW 6 9 30.00 1016 10 16 N/A
6:35 pm 18:35 Sunny N/A N/A N/A NNW 6 9 N/A 10 16 N/A
6:55 pm 18:55 Sunny 84 29 68 20 58 58 N 5 7 29.99 1016 10 16 N/A
7:15 pm 19:15 Sunny 85 29.2 68 19.9 57 57 N N/A 29.99 1016 10 16 N/A
7:35 pm 19:35 Sunny 84 28.9 70 20.9 62 62 N N/A 29.99 1016 10 16 N/A
7:55 pm 19:55 Sunny 84 28.7 68 19.9 59 59 N N/A 29.98 1015 10 16 N/A
8:15 pm 20:15 Sunny 81 27 73 23 79 79 NNW 5 7 30.00 1016 10 16 N/A
8:35 pm 20:35 Sunny 78 25.3 76 24.2 94 94 N N/A 30.00 1016 10 16 N/A
8:55 pm 20:55 Sunny 75 24 73 23 94 94 W 3 6 30.01 1016 10 16 N/A
9:15 pm 21:15 Clear N/A N/A N/A N 3 6 N/A 10 16 N/A
9:35 pm 21:35 Clear N/A N/A N/A N 3 6 N/A 10 16 N/A
9:55 pm 21:55 Clear 71 21.6 70 21.3 98 98 N N/A 30.03 1017 10 16 N/A
10:15 pm 22:15 Clear 73 22.6 71 21.5 94 94 N N/A 30.03 1017 10 16 N/A
10:35 pm 22:35 Clear 71 21.6 70 20.9 96 96 N 3 6 30.04 1017 10 16 N/A
10:55 pm 22:55 Clear 70 21.3 70 21.2 99 99 N N/A 30.04 1017 10 16 N/A
11:15 pm 23:15 Clear 70 21 70 21 100 100 N N/A 30.04 1017 10 16 N/A
11:35 pm 23:35 Clear 68 20 N/A N/A N N/A 30.04 1017 10 16 N/A
11:55 pm 23:55 Clear 68 20 N/A N/A N N/A 30.04 1017 10 16 N/A

Powered by AerisWeather